Location: Griffin Ranch
(33.6186°N, 110.6622°W)
Time: 16:10:27
(UTC-07:00)

Cosmos 1812 - Visible Passes

Search period start: 29 June 2015 00:00
Search period end: 09 July 2015 00:00
Orbit: 525 x 533 km, 82.5° (Epoch: 29 June)

Date Brightness Start Highest point End Pass type
(mag) Time Alt. Az. Time Alt. Az. Time Alt. Az.
29 Jun 4.5 01:55:41 10° N 01:57:59 31° NNE 01:57:59 31° NNE visible
30 Jun 4.8 01:44:54 10° N 01:46:58 27° NNE 01:46:58 27° NNE visible
01 Jul 5.0 01:34:08 10° N 01:35:58 24° NNE 01:35:58 24° NNE visible
02 Jul 5.2 01:23:22 10° NNE 01:24:58 21° NNE 01:24:58 21° NNE visible
03 Jul 5.4 01:12:37 10° NNE 01:14:00 19° NNE 01:14:00 19° NNE visible
04 Jul 5.5 01:01:51 10° NNE 01:03:02 17° NNE 01:03:02 17° NNE visible
05 Jul 5.6 00:51:06 10° NNE 00:52:05 16° NNE 00:52:05 16° NNE visible
06 Jul 5.7 00:40:22 10° NNE 00:41:09 14° NNE 00:41:09 14° NNE visible
07 Jul 5.8 00:29:37 10° NNE 00:30:14 13° NNE 00:30:14 13° NNE visible
08 Jul 5.8 00:18:53 10° NNE 00:19:19 12° NNE 00:19:19 12° NNE visible
